カタログに戻る

NOAA 16 DEB

運用中SSO
NORAD 41134·DEBRIS·🇺🇸 United States

打ち上げ Sep 21, 2000 から Vandenberg Space Force Base

Loading…

次のパス (今後24時間)

TLE

最新Source: Space-Track

元期: Sep 14, 2026, 00:48 UTC

1 41134U 00055BR  26257.03362572  .00001138  00000-0  57976-3 0  9993
2 41134  98.6143 289.6136 0025894 242.3834 117.4711 14.17552812554287

AllMySatでNOAA 16 DEBをリアルタイム追跡

Download on the App Store